Location: Bow
(51.5261°N, 0.0167°W)
Time: 15:09:26
(UTC+00:00)

Cosmos 2266 Rocket - Pass Details

Date: 18 September 2020
Orbit: 934 x 1008 km, 82.9° (Epoch: 27 October)

Event Time Altitude Azimuth Distance (km) Brightness Sun altitude
Rises 20:57:01 0° 352° (N) 3,622 7.7 -25.2°
Reaches altitude 10° 20:59:36 10° 357° (N) 2,667 6.8 -25.5°
Maximum altitude 21:05:31 52° 74° (ENE) 1,150 4.1 -26.2°
Enters shadow 21:05:32 52° 74° (ENE) 1,150 4.1 -26.2°
